Humidity-temperature Sensor

Selected Measurement Type: Relative Humidity

 
Relative Humidity [%]     6 entries per hour
Showing data from 3/2/2016 (00:00:00 Z) to 3/1/2016 (00:01:00 Z)
Previous Next [ Day | 3-Days | 7-Days ]
First Last
Prev [ Day | 3-Days | 7-Days ] Next
First Last

Start Time:     :
End Time:     :     
Time (in GMT) :00 :50 :40 :30 :20 :10
Previous Next [ Day | 3-Days | 7-Days ]
First Last
Prev [ Day | 3-Days | 7-Days ] Next
First Last


123 => good data
MM => data is determined as missing
-- => data not received/configured
Back to Top Back to Top
3/2/2016 00:00 to 23:10 83.62 83.84 84.15 84.79 84.64 84.53
3/1/2016 23:00 to 22:10 84.56 85.68 85.34 85.68 85.59 86.19
3/1/2016 22:00 to 21:10 87.22 86.82 87.59 86.42 86.82 86.78
3/1/2016 21:00 to 20:10 87.29 86.59 87.52 87.61 87.88 87.67
3/1/2016 20:00 to 19:10 87.52 87.05 87.67 87.86 87.54 87.39
3/1/2016 19:00 to 18:10 87.37 87.06 87.42 87.10 86.74 86.74
3/1/2016 18:00 to 17:10 86.87 86.87 86.46 86.46 85.93 86.69
3/1/2016 17:00 to 16:10 86.12 86.23 86.08 86.44 86.50 87.56
3/1/2016 16:00 to 15:10 88.64 89.83 89.91 89.85 89.62 89.94
3/1/2016 15:00 to 14:10 90.02 89.62 89.13 88.39 88.31 89.02
3/1/2016 14:00 to 13:10 88.84 89.07 88.45 88.48 88.05 87.99
3/1/2016 13:00 to 12:10 88.73 88.79 87.50 87.97 88.45 89.55
3/1/2016 12:00 to 11:10 90.04 90.30 90.15 89.32 90.28 89.34
3/1/2016 11:00 to 10:10 90.64 90.81 90.47 90.28 90.68 90.30
3/1/2016 10:00 to 9:10 90.08 90.00 90.09 89.41 89.47 89.79
3/1/2016 09:00 to 8:10 89.41 88.48 87.97 88.67 88.24 88.48
3/1/2016 08:00 to 7:10 88.50 88.56 88.56 88.58 88.66 88.56
3/1/2016 07:00 to 6:10 88.03 88.01 87.77 88.01 86.91 87.03
3/1/2016 06:00 to 5:10 87.61 87.69 88.26 87.94 87.95 88.41
3/1/2016 05:00 to 4:10 87.99 88.12 89.07 88.45 88.60 88.54
3/1/2016 04:00 to 3:10 87.94 87.56 88.48 88.52 87.48 86.84
3/1/2016 03:00 to 2:10 85.83 88.16 88.22 88.01 87.69 87.35
3/1/2016 02:00 to 1:10 87.06 87.48 86.69 85.76 87.06 86.95
3/1/2016 01:00 to 0:10 86.48 87.44 87.16 87.39 87.39 88.28